Starlink 2704

operational
NORAD ID: 48643 Int'l Des: 2021-044 Owner: SPXS Country: US Constellation: starlink
LEOCIRCULARSTARLINK_TYPE

关于 Starlink 2704

正在加载描述...

实时位置

正在加载3D地球...

即将过境

高度历史

Altitude vs Time

uPlot chart will show altitude changes over time

两行轨道根数

1 48643U 21044F 25352.56957507 .00000725 00000-0 67556-4 0 9994
2 48643 53.0553 125.7733 0001212 90.3925 269.7203 15.06396429251484
Epoch: Dec 18, 2025 • Age: 8 hours

当前状态

高度 563.2 km
速度 7.58 km/s
星下点 -45.02°S, 27.78°E
发射日期 May 26, 2021
运行时间 4.5 years
类型 internet

技术详情

分类 Payload
质量 260.00 kg
干质量 248.00 kg
总质量 260.00 kg
长度 0.20 m
直径 2.80 m
跨度 9.00 m
形状 Box + pan
制造商 SPXS
平台类型 Starlink
阶段状态 In Orbit
所有者/国家 SPXS/US

大型星座

Loading constellations...